Погода в Авдееве

Россия / Республика Карелия     62˚00′47″N   36˚03′11″E
темп.,
°C
ветер,
м/с
пор.,
м/с
влажн.,
%
обл.,
%
осадки,
мм/ч
давл.,
гПа
погр.,
м
15 января, пт
пт1500:00−28˚св389790 0.0 1019231
03:00−27˚ссв389795 0.0 1019243
06:00−27˚ссв2697100 0.0 1018190
09:00−27˚ссв2498100 0.0 1018129
12:00−25˚ссв2597100 0.0 1018199
15:00−24˚ссв2298100 0.0 101896
18:00−25˚св1297100 0.0 101849
21:00−26˚всв129773 0.0 101924
16 января, сб
сб1600:00−26˚св229613 0.0 101922
03:00−26˚св229622 0.0 102123
06:00−26˚св239621 0.0 102052
09:00−26˚св129035 0.0 102022
12:00−23˚ссв22911 0.0 102059
15:00−22˚с129312 0.0 101924
18:00−22˚с239721 0.0 101733
21:00−22˚ссв119943 0.0 101722
17 января, вс
вс1700:00−21˚ссз1110093 0.0 101621
03:00−20˚ю1110094 0.1 101521
06:00−19˚ю12100100 0.1 101426
09:00−15˚ююз1298100 0.2 101426
12:00−12˚юз129798 0.1 101475
15:00−10˚юз129798 0.2 101354
18:00−9˚зюз229798 0.2 101347
21:00−10˚зсз239796 0.4 101362
18 января, пн
пн1800:00−12˚зсз129792 0.1 101327
03:00−12˚сз129794 0.1 101424
06:00−14˚сз119779 0.0 101421
09:00−12˚з129783 0.0 101523
12:00−10˚з239797 0.0 1016118
15:00−10˚з249798 0.1 1015106
18:00−9˚зюз229899 0.1 101681
21:00−8˚юз259799 0.3 1016145
19 января, вт
вт1900:00−7˚юз2497100 0.3 1016129
03:00−6˚юз4995100 0.8 1015398
06:00−6˚юз5109599 0.6 1014445
09:00−7˚ююз4109499 0.9 1014411
12:00−7˚ююз51094100 0.3 1014515
15:00−7˚ююз51093100 0.6 1013514
18:00−7˚ююз4119399 0.2 1014422
21:00−6˚юз51095100 0.5 1014479